Terminal Aerodrome Forecast
Issued by NWS

Home | Current Version | Previous Version | Graphics & Text | Print | Product List | Glossary On
Versions: 1 2 3 4 5 6 7 8 9 10 11 12 13
000
FTUS41 KCLE 260530
TAFFDY
TAF
KFDY 260530Z 2606/2706 30005KT P6SM BKN250
     FM260800 VRB03KT 6SM BR SKC
     FM261500 06008KT P6SM SCT045
     FM262200 04004KT P6SM SKC=

USA.gov is the U.S. government's official web portal to all federal, state and local government web resources and services.